This is the latest recevied weather packets stored in our database for station/object WO5CID. If no packets are shown the sender has not sent any weather packets the latest 10 day(s).
| Time | Temp. | Humidity | Pressure | Rain* | Wind** | Luminosity | Snow |
|---|---|---|---|---|---|---|---|
| 1777903429 | 25° C | 47% | 1018.1 hPa | 0 mm | - | 585 W/m² | - |
| 1777903126 | 25° C | 51% | 1018.3 hPa | 0 mm | - | 565 W/m² | - |
| 1777902822 | 25° C | 47% | 1018.3 hPa | 0 mm | - | 551 W/m² | - |
| 1777902520 | 24.44° C | 47% | 1018.3 hPa | 0 mm | - | 535 W/m² | - |
| 1777902216 | 24.44° C | 53% | 1018.3 hPa | 0 mm | - | 517 W/m² | - |
| 1777901915 | 24.44° C | 52% | 1018.2 hPa | 0 mm | - | 497 W/m² | - |
| 1777901612 | 24.44° C | 52% | 1018.2 hPa | 0 mm | - | 471 W/m² | - |
| 1777901309 | 23.89° C | 57% | 1018.1 hPa | 0 mm | - | 452 W/m² | - |
| 1777901006 | 23.33° C | 54% | 1018 hPa | 0 mm | - | 429 W/m² | - |
| 1777900704 | 23.33° C | 57% | 1018.3 hPa | 0 mm | - | 417 W/m² | - |
| 1777900401 | 23.33° C | 57% | 1018.2 hPa | 0 mm | - | 392 W/m² | - |
| 1777900098 | 22.22° C | 60% | 1018.2 hPa | 0 mm | - | 303 W/m² | - |
| 1777899794 | 22.22° C | 62% | 1018.2 hPa | 0 mm | - | 273 W/m² | - |
| 1777899492 | 22.22° C | 63% | 1018 hPa | 0 mm | - | 245 W/m² | - |
| 1777899189 | 22.22° C | 64% | 1017.9 hPa | 0 mm | - | 212 W/m² | - |
| 1777898886 | 21.67° C | 73% | 1017.9 hPa | 0 mm | - | 183 W/m² | - |
| 1777898583 | 20.56° C | 75% | 1018.1 hPa | 0 mm | - | 160 W/m² | - |
| 1777898281 | 19.44° C | 81% | 1017.9 hPa | 0 mm | - | 136 W/m² | - |
| 1777897978 | 17.78° C | 96% | 1017.9 hPa | 0 mm | - | 128 W/m² | - |
| 1777897674 | 17.78° C | 99% | 1017.9 hPa | 0 mm | - | 115 W/m² | - |
| 1777897370 | 16.67° C | 99% | 1017.9 hPa | 0 mm | - | 106 W/m² | - |
| 1777897066 | 15.56° C | 99% | 1017.9 hPa | 0 mm | - | 96 W/m² | - |
| 1777896763 | 15° C | 99% | 1018 hPa | 0 mm | - | 66 W/m² | - |
| 1777896460 | 13.89° C | 99% | 1017.9 hPa | 0 mm | - | 50 W/m² | - |
| 1777896158 | 13.89° C | 99% | 1017.8 hPa | 0 mm | - | 38 W/m² | - |
* Rain latest hour (hover to see other rain measurements)
** Current wind speed in m/s (hover to see current wind gust speed)